TimeCET,TemperatureF,Dew PointF,Humidity,Sea Level PressureIn,VisibilityMPH,Wind Direction,Wind SpeedMPH,Gust SpeedMPH,PrecipitationIn,Events,Conditions,WindDirDegrees,DateUTC
12:00 AM,53.6,35.6,51,29.50,6.2,WNW,19.6,34.5,N/A,,Partly Cloudy,290,2013-01-19 23:00:00
12:30 AM,53.6,35.6,51,29.53,6.2,West,18.4,31.1,N/A,,Partly Cloudy,280,2013-01-19 23:30:00
1:00 AM,53,37,43,29.56,12,WNW,17.3,,,,Scattered Clouds,300,2013-01-20 00:00:00
1:00 AM,51.8,37.4,58,29.53,6.2,WNW,17.3,-,N/A,,Partly Cloudy,300,2013-01-20 00:00:00
1:30 AM,51.8,37.4,58,29.56,6.2,WNW,15.0,27.6,N/A,,Partly Cloudy,290,2013-01-20 00:30:00
2:00 AM,51.8,35.6,54,29.56,6.2,WNW,17.3,32.2,N/A,,Partly Cloudy,300,2013-01-20 01:00:00
2:30 AM,51.8,35.6,54,29.59,6.2,WNW,17.3,29.9,N/A,,Partly Cloudy,300,2013-01-20 01:30:00
3:00 AM,50.0,37.4,62,29.59,6.2,WNW,16.1,-,N/A,,Partly Cloudy,300,2013-01-20 02:00:00
3:30 AM,50.0,35.6,58,29.62,6.2,WNW,16.1,27.6,N/A,,Partly Cloudy,300,2013-01-20 02:30:00
4:00 AM,50.0,37.4,62,29.65,6.2,NW,13.8,25.3,N/A,,Scattered Clouds,310,2013-01-20 03:00:00
4:30 AM,50.0,37.4,62,29.65,6.2,WNW,13.8,-,N/A,,Scattered Clouds,300,2013-01-20 03:30:00
5:00 AM,50.0,35.6,58,29.65,6.2,WNW,12.7,24.2,N/A,,Partly Cloudy,300,2013-01-20 04:00:00
5:30 AM,50.0,35.6,58,29.68,6.2,WNW,13.8,-,N/A,,Partly Cloudy,300,2013-01-20 04:30:00
6:00 AM,50.0,35.6,58,29.68,6.2,WNW,15.0,-,N/A,,Partly Cloudy,290,2013-01-20 05:00:00
6:30 AM,50.0,35.6,58,29.68,6.2,WNW,15.0,-,N/A,,Partly Cloudy,300,2013-01-20 05:30:00
7:00 AM,50,36,48,29.72,12,WNW,15.0,,,,Scattered Clouds,300,2013-01-20 06:00:00
7:00 AM,48.2,37.4,66,29.71,6.2,WNW,15.0,26.5,N/A,,Partly Cloudy,300,2013-01-20 06:00:00
7:30 AM,50.0,37.4,62,29.71,6.2,WNW,16.1,28.8,N/A,,Partly Cloudy,300,2013-01-20 06:30:00
8:00 AM,50.0,37.4,62,29.71,6.2,WNW,16.1,-,N/A,,Partly Cloudy,300,2013-01-20 07:00:00
8:30 AM,50.0,37.4,62,29.74,6.2,WNW,15.0,27.6,N/A,,Partly Cloudy,300,2013-01-20 07:30:00
9:00 AM,50.0,37.4,62,29.77,6.2,WNW,8.1,-,N/A,,Partly Cloudy,300,2013-01-20 08:00:00
9:30 AM,50.0,37.4,62,29.77,6.2,WNW,8.1,-,N/A,,Partly Cloudy,290,2013-01-20 08:30:00
10:00 AM,51.8,37.4,58,29.80,6.2,WNW,12.7,-,N/A,,Partly Cloudy,290,2013-01-20 09:00:00
10:30 AM,53.6,39.2,58,29.83,6.2,WNW,12.7,24.2,N/A,,Partly Cloudy,290,2013-01-20 09:30:00
11:00 AM,53.6,39.2,58,29.83,6.2,WNW,18.4,-,N/A,,Partly Cloudy,290,2013-01-20 10:00:00
11:30 AM,55.4,39.2,54,29.86,6.2,WNW,17.3,28.8,N/A,,Partly Cloudy,300,2013-01-20 10:30:00
12:00 PM,55.4,39.2,54,29.86,6.2,WNW,15.0,27.6,N/A,,Partly Cloudy,300,2013-01-20 11:00:00
12:30 PM,55.4,39.2,54,29.86,6.2,WNW,17.3,28.8,N/A,,Scattered Clouds,300,2013-01-20 11:30:00
1:00 PM,58,39,37,29.86,25,WNW,16.1,,,,Partly Cloudy,300,2013-01-20 12:00:00
1:00 PM,57.2,39.2,51,29.86,6.2,WNW,16.1,27.6,N/A,,Scattered Clouds,300,2013-01-20 12:00:00
1:30 PM,55.4,39.2,54,29.83,6.2,WNW,15.0,26.5,N/A,,Scattered Clouds,290,2013-01-20 12:30:00
2:00 PM,59.0,37.4,45,29.83,6.2,WNW,15.0,26.5,N/A,,Scattered Clouds,290,2013-01-20 13:00:00
2:30 PM,59.0,39.2,48,29.83,6.2,WNW,16.1,-,N/A,,Partly Cloudy,290,2013-01-20 13:30:00
3:00 PM,57.2,39.2,51,29.83,6.2,WNW,11.5,24.2,N/A,,Partly Cloudy,290,2013-01-20 14:00:00
3:30 PM,59.0,39.2,48,29.86,6.2,WNW,12.7,24.2,N/A,,Scattered Clouds,290,2013-01-20 14:30:00
4:00 PM,57.2,41.0,55,29.86,6.2,WNW,16.1,-,N/A,,Scattered Clouds,300,2013-01-20 15:00:00
4:30 PM,57.2,41.0,55,29.86,6.2,NW,16.1,29.9,N/A,,Scattered Clouds,310,2013-01-20 15:30:00
5:00 PM,55.4,42.8,63,29.86,6.2,WNW,10.4,-,N/A,,Scattered Clouds,300,2013-01-20 16:00:00
5:30 PM,55.4,41.0,58,29.86,6.2,NW,10.4,-,N/A,,Scattered Clouds,320,2013-01-20 16:30:00
6:00 PM,55.4,41.0,58,29.86,6.2,NW,8.1,-,N/A,,Scattered Clouds,310,2013-01-20 17:00:00
6:30 PM,55.4,41.0,58,29.86,6.2,NNW,5.8,-,N/A,,Scattered Clouds,330,2013-01-20 17:30:00
7:00 PM,56,41,46,29.87,19,,2.3,,,,Mostly Cloudy,,2013-01-20 18:00:00
7:00 PM,55.4,42.8,63,29.86,6.2,Variable,2.3,-,N/A,,Scattered Clouds,0,2013-01-20 18:00:00
7:30 PM,53.6,42.8,67,29.86,6.2,Calm,Calm,-,N/A,,Scattered Clouds,0,2013-01-20 18:30:00
8:00 PM,55.4,42.8,63,29.86,6.2,Variable,1.2,-,N/A,,Scattered Clouds,0,2013-01-20 19:00:00
8:30 PM,51.8,42.8,71,29.86,6.2,Calm,Calm,-,N/A,,Scattered Clouds,0,2013-01-20 19:30:00
9:00 PM,51.8,42.8,71,29.86,6.2,Variable,1.2,-,N/A,,Scattered Clouds,0,2013-01-20 20:00:00
9:30 PM,51.8,44.6,76,29.86,6.2,Calm,Calm,-,N/A,,Scattered Clouds,0,2013-01-20 20:30:00
10:00 PM,51.8,46.4,82,29.83,6.2,Variable,2.3,-,N/A,,Scattered Clouds,0,2013-01-20 21:00:00
10:30 PM,51.8,46.4,82,29.83,6.2,Variable,1.2,-,N/A,,Scattered Clouds,0,2013-01-20 21:30:00
11:00 PM,50.0,46.4,87,29.83,6.2,Calm,Calm,-,N/A,,Scattered Clouds,0,2013-01-20 22:00:00
11:30 PM,48.2,46.4,93,29.83,6.2,Calm,Calm,-,N/A,,Scattered Clouds,0,2013-01-20 22:30:00